Change the Weather History Date:

Saturday, August 25, 2012

  Actual Average Record
Temperature  
Mean Temperature 74 °F -  
Max Temperature 89 °F 84 °F 86 °F (2014)
Min Temperature 59 °F 62 °F 57 °F (2013)
Cooling Degree Days 9    
Growing Degree Days 24 (Base 50)    
Moisture  
Dew Point 59 °F    
Average Humidity 64    
Maximum Humidity 100    
Minimum Humidity 27    
Precipitation  
Precipitation 0.00 in - - ()
Sea Level Pressure  
Sea Level Pressure 30.13 in    
Wind  
Wind Speed 3 mph ()    
Max Wind Speed 7 mph    
Max Gust Speed -    
Visibility 9.4 miles    
Events      
Averages and records for this station are not official NWS values.
T = Trace of Precipitation, MM = Missing Value Source: Averaged Metar Reports

Daily Weather History Graph

Daily Weather History Graph

Search for Another Location

Airport or City:

Trip Planner

Search our weather history database for the weather conditions in past years. The results will help you decide how hot, cold, wet, or windy it might be!

Date:

Astronomy

Aug. 25, 2012 Rise Set
Actual Time 7:00 AM EDT 8:14 PM EDT
Civil Twilight 6:32 AM EDT 8:42 PM EDT
Nautical Twilight 6:00 AM EDT 9:14 PM EDT
Astronomical Twilight 5:25 AM EDT 9:48 PM EDT
Moon 3:44 PM EDT (8/25) 12:45 AM EDT (8/25)
Length of Visible Light 14h 09m
Length of Day
13h 14m
Waxing Gibbous, 62% of the Moon is Illuminated
Aug 25
Waxing Gibbous
Aug 31
Full
Sep 8
Last Quarter
Sep 15
New
Sep 22
First Quarter

Hourly Weather History & Observations

Time (EDT) Temp. Heat Index Dew Point Humidity Pressure Visibility Wind Dir Wind Speed Gust Speed Precip Events Conditions
12:15 AM 69.8 °F - 60.8 °F 73% 30.12 in - SSE 4.6 mph - N/A   Clear
12:35 AM 66.2 °F - 60.8 °F 83% 30.12 in - SSE 3.5 mph - N/A   Clear
12:55 AM 64.4 °F - 60.8 °F 88% 30.12 in - SSE 4.6 mph - N/A   Unknown
1:15 AM 62.6 °F - 60.8 °F 94% 30.12 in - SSE 3.5 mph - N/A   Unknown
1:35 AM 62.6 °F - 60.8 °F 94% 30.12 in - South 4.6 mph - N/A   Unknown
1:55 AM 62.6 °F - 60.8 °F 94% 30.12 in - South 3.5 mph - N/A   Unknown
2:15 AM 62.6 °F - 60.8 °F 94% 30.12 in - Calm Calm - N/A   Unknown
2:35 AM 62.6 °F - 60.8 °F 94% 30.12 in - Calm Calm - N/A   Unknown
2:55 AM 60.8 °F - 60.8 °F 100% 30.12 in - Calm Calm - N/A   Unknown
3:15 AM 62.6 °F - 60.8 °F 94% 30.12 in - SSW 4.6 mph - N/A   Unknown
3:35 AM 62.6 °F - 59.0 °F 88% 30.12 in - SW 4.6 mph - N/A   Unknown
3:55 AM 64.4 °F - 60.8 °F 88% 30.12 in - SSW 3.5 mph - N/A   Unknown
4:15 AM 64.4 °F - 60.8 °F 88% 30.12 in - Calm Calm - N/A   Clear
4:55 AM 66.2 °F - 60.8 °F 83% 30.12 in - South 3.5 mph - N/A   Clear
5:15 AM 60.8 °F - 59.0 °F 94% 30.13 in - SW 4.6 mph - N/A   Unknown
5:35 AM 60.8 °F - 60.8 °F 100% 30.13 in - SSW 3.5 mph - N/A   Unknown
5:55 AM 62.6 °F - 60.8 °F 94% 30.13 in - Calm Calm - N/A   Unknown
6:15 AM 59.0 °F - 57.2 °F 94% 30.14 in - SSW 4.6 mph - N/A   Unknown
6:35 AM 59.0 °F - 59.0 °F 100% 30.15 in - SSW 3.5 mph - N/A   Unknown
7:15 AM 59.0 °F - 59.0 °F 100% 30.15 in - SW 3.5 mph - N/A   Unknown
7:35 AM 64.4 °F - 60.8 °F 88% 30.15 in - SSW 3.5 mph - N/A   Unknown
7:55 AM 60.8 °F - 59.0 °F 94% 30.15 in - SW 3.5 mph - N/A   Unknown
8:15 AM 66.2 °F - 60.8 °F 83% 30.15 in - SW 5.8 mph - N/A   Clear
8:35 AM 69.8 °F - 62.6 °F 78% 30.17 in - Calm Calm - N/A   Clear
8:55 AM 71.6 °F - 62.6 °F 73% 30.17 in - WSW 3.5 mph - N/A   Clear
9:15 AM 73.4 °F - 62.6 °F 69% 30.17 in - WSW 4.6 mph - N/A   Clear
9:35 AM 75.2 °F - 62.6 °F 65% 30.17 in - WSW 6.9 mph - N/A   Clear
9:55 AM 77.0 °F - 62.6 °F 61% 30.18 in 10.0 mi SW 4.6 mph - N/A   Clear
10:15 AM 77.0 °F - 62.6 °F 61% 30.18 in 10.0 mi WSW 3.5 mph - N/A   Clear
10:35 AM 78.8 °F - 62.6 °F 57% 30.18 in 10.0 mi SW 3.5 mph - N/A   Clear
10:55 AM 80.6 °F 82.3 °F 64.4 °F 58% 30.18 in 10.0 mi West 5.8 mph - N/A   Clear
11:15 AM 80.6 °F 82.3 °F 64.4 °F 58% 30.18 in 10.0 mi West 4.6 mph - N/A   Clear
11:35 AM 82.4 °F 83.4 °F 62.6 °F 51% 30.18 in 10.0 mi Calm Calm - N/A   Clear
11:55 AM 82.4 °F 83.4 °F 62.6 °F 51% 30.18 in 10.0 mi NW 3.5 mph - N/A   Clear
12:15 PM 86.0 °F 86.6 °F 62.6 °F 45% 30.17 in 10.0 mi WNW 3.5 mph - N/A   Clear
12:35 PM 84.2 °F 84.4 °F 60.8 °F 45% 30.16 in 10.0 mi Calm Calm - N/A   Clear
12:55 PM 86.0 °F 86.1 °F 60.8 °F 43% 30.16 in 10.0 mi Calm Calm - N/A   Clear
1:15 PM 86.0 °F 86.1 °F 60.8 °F 43% 30.15 in 10.0 mi SSW 3.5 mph - N/A   Clear
1:35 PM 87.8 °F 86.1 °F 55.4 °F 33% 30.15 in 10.0 mi ESE 5.8 mph - N/A   Clear
1:55 PM 87.8 °F 86.1 °F 55.4 °F 33% 30.14 in 10.0 mi SE 4.6 mph - N/A   Clear
2:15 PM 87.8 °F 85.7 °F 53.6 °F 31% 30.13 in 10.0 mi Calm Calm - N/A   Mostly Cloudy
2:35 PM 87.8 °F 86.1 °F 55.4 °F 33% 30.13 in 10.0 mi East 3.5 mph - N/A   Scattered Clouds
2:55 PM 87.8 °F 86.1 °F 55.4 °F 33% 30.12 in 10.0 mi NNW 3.5 mph - N/A   Clear
3:15 PM 89.6 °F 87.7 °F 55.4 °F 31% 30.11 in 10.0 mi ENE 6.9 mph - N/A   Clear
3:35 PM 87.8 °F 86.1 °F 55.4 °F 33% 30.11 in 10.0 mi ENE 4.6 mph - N/A   Clear
4:15 PM 89.6 °F - 51.8 °F 27% 30.10 in 10.0 mi Calm Calm - N/A   Clear
4:35 PM 89.6 °F - 51.8 °F 27% 30.10 in 10.0 mi NE 5.8 mph - N/A   Clear
4:55 PM 89.6 °F - 51.8 °F 27% 30.10 in 10.0 mi Calm Calm - N/A   Clear
5:15 PM 89.6 °F 87.3 °F 53.6 °F 29% 30.09 in 10.0 mi Calm Calm - N/A   Clear
5:35 PM 89.6 °F 87.3 °F 53.6 °F 29% 30.09 in 10.0 mi ESE 4.6 mph - N/A   Clear
5:55 PM 89.6 °F 87.3 °F 53.6 °F 29% 30.09 in 10.0 mi ESE 3.5 mph - N/A   Clear
6:15 PM 87.8 °F 85.7 °F 53.6 °F 31% 30.09 in 10.0 mi East 3.5 mph - N/A   Clear
6:35 PM 87.8 °F - 51.8 °F 29% 30.09 in 10.0 mi East 4.6 mph - N/A   Clear
6:55 PM 87.8 °F 85.7 °F 53.6 °F 31% 30.09 in 10.0 mi ESE 6.9 mph - N/A   Clear
7:15 PM 86.0 °F 85.4 °F 59.0 °F 40% 30.10 in 10.0 mi SE 5.8 mph - N/A   Clear
7:35 PM 86.0 °F 85.4 °F 59.0 °F 40% 30.10 in 10.0 mi SE 4.6 mph - N/A   Clear
7:55 PM 82.4 °F 82.9 °F 60.8 °F 48% 30.10 in 10.0 mi ESE 3.5 mph - N/A   Clear
8:15 PM 82.4 °F 82.9 °F 60.8 °F 48% 30.10 in 10.0 mi South 3.5 mph - N/A   Clear
8:35 PM 78.8 °F - 60.8 °F 54% 30.11 in 10.0 mi South 4.6 mph - N/A   Clear
8:55 PM 80.6 °F 81.5 °F 60.8 °F 51% 30.12 in 5.0 mi South 4.6 mph - N/A   Haze
9:15 PM 78.8 °F - 59.0 °F 51% 30.12 in 7.0 mi SSE 4.6 mph - N/A   Clear
9:35 PM 78.8 °F - 59.0 °F 51% 30.13 in 4.0 mi SSE 4.6 mph - N/A   Haze
9:55 PM 69.8 °F - 62.6 °F 78% 30.13 in 10.0 mi South 3.5 mph - N/A   Clear
10:15 PM 71.6 °F - 62.6 °F 73% 30.14 in 7.0 mi SSE 4.6 mph - N/A   Clear
10:35 PM 75.2 °F - 60.8 °F 61% 30.14 in 5.0 mi SE 4.6 mph - N/A   Haze
10:55 PM 66.2 °F - 62.6 °F 88% 30.14 in 10.0 mi South 3.5 mph - N/A   Clear
11:15 PM 69.8 °F - 62.6 °F 78% 30.14 in - SSE 4.6 mph - N/A   Clear
11:35 PM 64.4 °F - 62.6 °F 94% 30.14 in - South 3.5 mph - N/A   Unknown
11:55 PM 64.4 °F - 62.6 °F 94% 30.14 in - Calm Calm - N/A   Unknown